Location: Enborne
(51.3833°N, 1.3667°W)
Time: 12:14:58
(UTC+00:00)

Cosmos 1626 - Pass Details

Date: 18 September 2020
Orbit: 490 x 495 km, 82.5° (Epoch: 23 October)

Event Time Altitude Azimuth Distance (km) Brightness Sun altitude
Rises 20:12:01 0° 354° (N) 2,592 6.2 -18.8°
Reaches altitude 10° 20:14:13 10° 1° (N) 1,703 5.2 -19.1°
Enters shadow 20:17:30 43° 59° (ENE) 707 2.6 -19.5°
